When you browse on this site, cookies collect data to enhance your experience and personalize the content and advertising you see.
Visit our Privacy Policy to learn more. By continuing to use the site, you agree to this use of cookies and data.

Hourly Weather Mokryy Kerchik

Today, 25 September, Friday

Time Temperature Precipitation Wind Pressure Humidity
00:00 +16°C° 0 mm 3 mps 759 mmHg 39%
01:00 +16°C° 0 mm 3 mps 759 mmHg 41%
02:00 +16°C° 0 mm 3 mps 759 mmHg 43%
03:00 +14°C° 0 mm 3 mps 759 mmHg 45%
04:00 +14°C° 0 mm 3 mps 759 mmHg 47%
05:00 +13°C° 0 mm 3 mps 759 mmHg 48%
06:00 +13°C° 0 mm 3 mps 759 mmHg 50%
07:00 +17°C° 0 mm 4 mps 759 mmHg 45%
08:00 +19°C° 0 mm 4 mps 759 mmHg 41%
09:00 +21°C° 0 mm 5 mps 759 mmHg 37%
10:00 +23°C° 0 mm 5 mps 759 mmHg 34%
11:00 +26°C° 0 mm 6 mps 759 mmHg 31%
12:00 +28°C° 0 mm 6 mps 758 mmHg 29%
13:00 +28°C° 0 mm 6 mps 758 mmHg 28%
14:00 +29°C° 0 mm 6 mps 758 mmHg 27%
15:00 +30°C° 0 mm 6 mps 757 mmHg 26%
16:00 +28°C° 0 mm 5 mps 757 mmHg 28%
17:00 +27°C° 0 mm 5 mps 757 mmHg 30%
18:00 +25°C° 0 mm 4 mps 757 mmHg 31%
19:00 +23°C° 0 mm 4 mps 757 mmHg 33%
20:00 +22°C° 0 mm 5 mps 757 mmHg 34%
21:00 +21°C° 0 mm 5 mps 757 mmHg 35%
22:00 +21°C° 0 mm 5 mps 757 mmHg 37%
23:00 +20°C° 0 mm 5 mps 757 mmHg 39%

Tomorrow, 26 September, Saturday

Time Temperature Precipitation Wind Pressure Humidity
00:00 +20°C° 0 mm 5 mps 757 mmHg 41%
01:00 +19°C° 0 mm 5 mps 757 mmHg 41%
02:00 +17°C° 0 mm 5 mps 756 mmHg 42%
03:00 +17°C° 0 mm 5 mps 756 mmHg 43%
04:00 +16°C° 0 mm 5 mps 756 mmHg 43%
05:00 +15°C° 0 mm 5 mps 757 mmHg 43%
06:00 +15°C° 0 mm 5 mps 757 mmHg 43%
07:00 +17°C° 0 mm 5 mps 757 mmHg 37%
08:00 +20°C° 0 mm 6 mps 757 mmHg 31%
09:00 +22°C° 0 mm 7 mps 757 mmHg 26%
10:00 +24°C° 0 mm 7 mps 757 mmHg 22%
11:00 +28°C° 0 mm 8 mps 757 mmHg 19%
12:00 +31°C° 0 mm 8 mps 756 mmHg 16%
13:00 +31°C° 0 mm 9 mps 756 mmHg 16%
14:00 +32°C° 0 mm 9 mps 756 mmHg 16%
15:00 +32°C° 0 mm 9 mps 756 mmHg 17%
16:00 +29°C° 0 mm 8 mps 756 mmHg 20%
17:00 +28°C° 0 mm 8 mps 756 mmHg 24%
18:00 +27°C° 0 mm 7 mps 756 mmHg 27%
19:00 +26°C° 0 mm 7 mps 756 mmHg 28%
20:00 +24°C° 0 mm 7 mps 757 mmHg 29%
21:00 +24°C° 0 mm 7 mps 757 mmHg 30%
22:00 +23°C° 0 mm 7 mps 757 mmHg 32%
23:00 +21°C° 0 mm 7 mps 758 mmHg 34%

Day after tomorrow, 27 September, Sunday

Time Temperature Precipitation Wind Pressure Humidity
00:00 +20°C° 0 mm 6 mps 758 mmHg 36%
01:00 +19°C° 0 mm 6 mps 758 mmHg 38%
02:00 +19°C° 0 mm 6 mps 758 mmHg 41%
03:00 +17°C° 0 mm 6 mps 758 mmHg 43%
04:00 +16°C° 0 mm 6 mps 758 mmHg 44%
05:00 +16°C° 0 mm 6 mps 759 mmHg 45%
06:00 +15°C° 0 mm 6 mps 759 mmHg 46%
07:00 +17°C° 0 mm 7 mps 759 mmHg 44%
08:00 +18°C° 0 mm 7 mps 759 mmHg 42%
09:00 +20°C° 0 mm 8 mps 759 mmHg 40%
10:00 +23°C° 0 mm 8 mps 759 mmHg 34%
11:00 +26°C° 0 mm 9 mps 759 mmHg 29%
12:00 +28°C° 0 mm 9 mps 759 mmHg 24%
13:00 +29°C° 0 mm 9 mps 759 mmHg 24%
14:00 +29°C° 0 mm 9 mps 759 mmHg 23%
15:00 +31°C° 0 mm 9 mps 759 mmHg 23%
16:00 +29°C° 0 mm 8 mps 759 mmHg 25%
17:00 +27°C° 0 mm 7 mps 759 mmHg 28%
18:00 +26°C° 0 mm 6 mps 759 mmHg 30%
19:00 +24°C° 0 mm 6 mps 760 mmHg 32%
20:00 +23°C° 0 mm 6 mps 760 mmHg 35%
21:00 +21°C° 0 mm 7 mps 760 mmHg 37%
22:00 +21°C° 0 mm 7 mps 760 mmHg 41%
23:00 +20°C° 0 mm 7 mps 761 mmHg 44%

28 September, Monday

Time Temperature Precipitation Wind Pressure Humidity
00:00 +18°C° 0 mm 7 mps 761 mmHg 48%
01:00 +17°C° 0 mm 7 mps 761 mmHg 51%
02:00 +16°C° 0 mm 6 mps 761 mmHg 54%
03:00 +16°C° 0 mm 6 mps 761 mmHg 56%
04:00 +15°C° 0 mm 6 mps 761 mmHg 57%
05:00 +15°C° 0 mm 6 mps 762 mmHg 57%
06:00 +14°C° 0 mm 6 mps 762 mmHg 57%
07:00 +16°C° 0 mm 6 mps 762 mmHg 54%
08:00 +17°C° 0 mm 7 mps 762 mmHg 50%
09:00 +18°C° 0 mm 8 mps 762 mmHg 47%
10:00 +21°C° 0 mm 7 mps 762 mmHg 41%
11:00 +24°C° 0 mm 7 mps 762 mmHg 35%
12:00 +27°C° 0 mm 7 mps 762 mmHg 29%
13:00 +27°C° 0 mm 7 mps 761 mmHg 28%
14:00 +28°C° 0 mm 7 mps 761 mmHg 26%
15:00 +29°C° 0 mm 7 mps 761 mmHg 24%
16:00 +27°C° 0.1 mm 6 mps 761 mmHg 27%
17:00 +26°C° 0.1 mm 5 mps 761 mmHg 29%
18:00 +25°C° 0.1 mm 4 mps 761 mmHg 32%
19:00 +25°C° 0.1 mm 5 mps 761 mmHg 34%
20:00 +23°C° 0.1 mm 6 mps 761 mmHg 35%
21:00 +22°C° 0.1 mm 8 mps 761 mmHg 36%
22:00 +21°C° 0 mm 7 mps 761 mmHg 40%
23:00 +20°C° 0 mm 7 mps 761 mmHg 44%

29 September, Tuesday

Time Temperature Precipitation Wind Pressure Humidity
00:00 +18°C° 0 mm 7 mps 761 mmHg 48%
01:00 +17°C° 0.2 mm 7 mps 761 mmHg 53%
02:00 +17°C° 0.2 mm 6 mps 761 mmHg 59%
03:00 +16°C° 0.2 mm 6 mps 761 mmHg 65%
04:00 +15°C° 0.2 mm 6 mps 761 mmHg 67%
05:00 +15°C° 0.2 mm 7 mps 761 mmHg 68%
06:00 +15°C° 0.2 mm 7 mps 761 mmHg 69%
07:00 +15°C° 0.1 mm 7 mps 761 mmHg 65%
08:00 +16°C° 0.1 mm 7 mps 761 mmHg 61%
09:00 +16°C° 0.1 mm 7 mps 761 mmHg 57%
10:00 +18°C° 0 mm 8 mps 761 mmHg 50%
11:00 +21°C° 0 mm 8 mps 760 mmHg 44%
12:00 +23°C° 0 mm 9 mps 760 mmHg 38%
13:00 +24°C° 0 mm 9 mps 759 mmHg 35%
14:00 +26°C° 0 mm 9 mps 759 mmHg 31%
15:00 +27°C° 0 mm 9 mps 758 mmHg 28%
16:00 +26°C° 0 mm 8 mps 758 mmHg 29%
17:00 +24°C° 0 mm 7 mps 757 mmHg 30%
18:00 +24°C° 0 mm 6 mps 757 mmHg 31%
19:00 +23°C° 0 mm 7 mps 757 mmHg 32%
20:00 +22°C° 0 mm 7 mps 757 mmHg 33%
21:00 +21°C° 0 mm 8 mps 757 mmHg 34%
22:00 +20°C° 0 mm 8 mps 757 mmHg 38%
23:00 +18°C° 0 mm 8 mps 757 mmHg 42%

30 September, Wednesday

Time Temperature Precipitation Wind Pressure Humidity
00:00 +17°C° 0 mm 7 mps 756 mmHg 45%
01:00 +17°C° 0 mm 8 mps 756 mmHg 46%
02:00 +16°C° 0 mm 9 mps 756 mmHg 46%
03:00 +16°C° 0 mm 10 mps 755 mmHg 47%
04:00 +16°C° 0 mm 9 mps 755 mmHg 48%
05:00 +16°C° 0 mm 9 mps 755 mmHg 49%
06:00 +16°C° 0 mm 8 mps 755 mmHg 51%
07:00 +16°C° 0 mm 9 mps 755 mmHg 51%
08:00 +17°C° 0 mm 9 mps 755 mmHg 50%
09:00 +17°C° 0 mm 9 mps 755 mmHg 50%
10:00 +17°C° 1.2 mm 9 mps 755 mmHg 58%
11:00 +16°C° 1.2 mm 8 mps 755 mmHg 66%
12:00 +15°C° 1.2 mm 8 mps 755 mmHg 74%
13:00 +16°C° 1.2 mm 7 mps 755 mmHg 72%
14:00 +17°C° 1.2 mm 7 mps 755 mmHg 69%
15:00 +17°C° 1.2 mm 7 mps 754 mmHg 67%
16:00 +18°C° 0.2 mm 7 mps 754 mmHg 60%
17:00 +20°C° 0.2 mm 7 mps 754 mmHg 53%
18:00 +21°C° 0.2 mm 7 mps 754 mmHg 46%
19:00 +20°C° 0.1 mm 7 mps 754 mmHg 48%
20:00 +18°C° 0.1 mm 8 mps 755 mmHg 51%
21:00 +17°C° 0.1 mm 8 mps 755 mmHg 53%
22:00 +17°C° 0.3 mm 8 mps 755 mmHg 57%
23:00 +16°C° 0.3 mm 7 mps 755 mmHg 61%
Show more